Weather History for Palma de Mallorca, Spain

Change the Weather History Date:

Saturday, September 28, 2013

  Actual Average Record
Temperature  
Mean Temperature 76 °F -  
Max Temperature 82 °F 73 °F 84 °F (1999)
Min Temperature 69 °F 55 °F 48 °F (2007)
Cooling Degree Days 10    
Growing Degree Days 26 (Base 50)    
Moisture  
Dew Point 70 °F    
Average Humidity 79    
Maximum Humidity 94    
Minimum Humidity 64    
Precipitation  
Precipitation 0.00 in 0.08 in - ()
Sea Level Pressure  
Sea Level Pressure 29.79 in    
Wind  
Wind Speed 6 mph ()    
Max Wind Speed 17 mph    
Max Gust Speed -    
Visibility 6.3 miles    
Events      
Averages and records for this station are not official NWS values.
T = Trace of Precipitation, MM = Missing Value Source: Averaged Metar Reports

Daily Weather History Graph

Daily Weather History Graph

Search for Another Location

Airport:

Trip Planner

Search our weather history database for the weather conditions in past years. The results will help you decide how hot, cold, wet, or windy it might be!

Date:

Astronomy

Sep. 28, 2013 Rise Set
Actual Time 7:42 AM CEST 7:36 PM CEST
Civil Twilight 7:15 AM CEST 8:03 PM CEST
Nautical Twilight 6:44 AM CEST 8:34 PM CEST
Astronomical Twilight 6:12 AM CEST 9:05 PM CEST
Moon 1:17 AM CEST (9/28) 3:44 PM CEST (9/28)
Length of Visible Light 12h 47m
Length of Day
11h 54m
Last Quarter, 38% of the Moon is Illuminated
Sep 28
Last Quarter
Oct 5
New
Oct 12
First Quarter
Oct 19
Full
Oct 27
Last Quarter

Hourly Weather History & Observations

Time (CEST) Temp. Heat Index Dew Point Humidity Pressure Visibility Wind Dir Wind Speed Gust Speed Precip Events Conditions
12:00 AM 73.4 °F - 69.8 °F 88% 29.83 in 6.2 mi East 3.5 mph - N/A   Partly Cloudy
12:30 AM 73.4 °F - 69.8 °F 88% 29.86 in 6.2 mi ENE 3.5 mph - N/A   Partly Cloudy
1:00 AM 73.4 °F - 69.8 °F 88% 29.83 in 6.2 mi ENE 2.3 mph - N/A   Partly Cloudy
1:30 AM 75.2 °F - 69.8 °F 83% 29.83 in 6.2 mi Calm Calm - N/A   Partly Cloudy
2:00 AM 75.2 °F - 69.8 °F 83% 29.83 in 6.2 mi NE 1.2 mph - N/A   Partly Cloudy
2:30 AM 75.2 °F - 69.8 °F 83% 29.83 in 6.2 mi ENE 2.3 mph - N/A   Partly Cloudy
3:00 AM 73.4 °F - 69.8 °F 88% 29.80 in 6.2 mi NE 1.2 mph - N/A   Partly Cloudy
3:30 AM 73.4 °F - 69.8 °F 88% 29.80 in 6.2 mi Calm Calm - N/A   Partly Cloudy
4:00 AM 71.6 °F - 68.0 °F 88% 29.80 in 6.2 mi ENE 2.3 mph - N/A   Partly Cloudy
4:30 AM 71.6 °F - 68.0 °F 88% 29.80 in 6.2 mi Variable 1.2 mph - N/A   Partly Cloudy
5:00 AM 71.6 °F - 69.8 °F 94% 29.77 in 6.2 mi Calm Calm - N/A   Partly Cloudy
5:30 AM 71.6 °F - 68.0 °F 88% 29.77 in 6.2 mi Calm Calm - N/A   Partly Cloudy
6:00 AM 71.6 °F - 69.8 °F 94% 29.77 in 6.2 mi Calm Calm - N/A   Partly Cloudy
6:30 AM 69.8 °F - 68.0 °F 94% 29.77 in 6.2 mi Calm Calm - N/A   Partly Cloudy
7:00 AM 69.8 °F - 68.0 °F 94% 29.77 in 6.2 mi Calm Calm - N/A   Partly Cloudy
7:30 AM 69.8 °F - 68.0 °F 94% 29.77 in 6.2 mi SE 1.2 mph - N/A   Scattered Clouds
8:00 AM 70 °F - 69 °F 94% 29.79 in 4 mi NE 2.3 mph - -   Mist
8:00 AM 69.8 °F - 68.0 °F 94% 29.77 in 5.6 mi Calm Calm - N/A   Partly Cloudy
8:30 AM 71.6 °F - 69.8 °F 94% 29.80 in 5.6 mi WSW 8.1 mph - N/A   Scattered Clouds
9:00 AM 77.0 °F - 69.8 °F 78% 29.80 in 6.2 mi WSW 13.8 mph - N/A   Scattered Clouds
9:30 AM 77.0 °F - 69.8 °F 78% 29.80 in 6.2 mi WSW 10.4 mph - N/A   Scattered Clouds
10:00 AM 77.0 °F - 69.8 °F 78% 29.80 in 6.2 mi SW 10.4 mph - N/A   Scattered Clouds
10:30 AM 78.8 °F - 69.8 °F 74% 29.80 in 6.2 mi SW 9.2 mph - N/A   Scattered Clouds
11:00 AM 78.8 °F - 71.6 °F 78% 29.83 in 6.2 mi SW 12.7 mph - N/A   Partly Cloudy
11:30 AM 80.6 °F 84.6 °F 71.6 °F 74% 29.80 in 6.2 mi SW 12.7 mph - N/A   Scattered Clouds
12:00 PM 78.8 °F - 71.6 °F 78% 29.83 in 6.2 mi SW 13.8 mph - N/A   Scattered Clouds
12:30 PM 78.8 °F - 71.6 °F 78% 29.83 in 6.2 mi WSW 10.4 mph - N/A   Scattered Clouds
1:00 PM 78.8 °F - 71.6 °F 78% 29.83 in 6.2 mi SW 13.8 mph - N/A   Scattered Clouds
1:30 PM 80.6 °F 84.6 °F 71.6 °F 74% 29.80 in 6.2 mi WSW 9.2 mph - N/A   Partly Cloudy
2:00 PM 81 °F - 71 °F 64% 29.81 in 9 mi SW 16.1 mph - -   Overcast
2:00 PM 80.6 °F 84.6 °F 71.6 °F 74% 29.80 in 6.2 mi SW 15.0 mph - N/A   Partly Cloudy
2:30 PM 80.6 °F 83.9 °F 69.8 °F 70% 29.80 in 6.2 mi SW 11.5 mph - N/A   Partly Cloudy
3:00 PM 80.6 °F 84.6 °F 71.6 °F 74% 29.80 in 6.2 mi SW 15.0 mph - N/A   Partly Cloudy
3:30 PM 80.6 °F 83.9 °F 69.8 °F 70% 29.77 in 6.2 mi SW 13.8 mph - N/A   Partly Cloudy
4:00 PM 80.6 °F 83.2 °F 68.0 °F 65% 29.77 in 6.2 mi SW 13.8 mph - N/A   Partly Cloudy
4:30 PM 78.8 °F - 71.6 °F 78% 29.77 in 6.2 mi SW 12.7 mph - N/A   Partly Cloudy
5:00 PM 78.8 °F - 69.8 °F 74% 29.77 in 5.6 mi WSW 10.4 mph - N/A   Partly Cloudy
5:30 PM 78.8 °F - 68.0 °F 69% 29.77 in 6.2 mi SW 8.1 mph - N/A   Light Drizzle
6:00 PM 78.8 °F - 68.0 °F 69% 29.74 in 6.2 mi WSW 4.6 mph - N/A   Partly Cloudy
6:30 PM 78.8 °F - 69.8 °F 74% 29.77 in 6.2 mi SW 8.1 mph - N/A   Scattered Clouds
7:00 PM 78.8 °F - 71.6 °F 78% 29.77 in 6.2 mi SW 13.8 mph - N/A   Scattered Clouds
7:30 PM 78.8 °F - 69.8 °F 74% 29.77 in 6.2 mi SW 10.4 mph - N/A   Partly Cloudy
8:00 PM 78 °F - 70 °F 70% 29.77 in 11 mi SW 11.5 mph - -   Partly Cloudy
8:00 PM 78.8 °F - 69.8 °F 74% 29.77 in 6.2 mi SW 8.1 mph - N/A   Partly Cloudy
8:30 PM 78.8 °F - 69.8 °F 74% 29.77 in 6.2 mi SW 11.5 mph - N/A   Partly Cloudy
9:00 PM 78.8 °F - 69.8 °F 74% 29.77 in 6.2 mi SW 11.5 mph - N/A   Partly Cloudy
9:30 PM 78.8 °F - 68.0 °F 69% 29.77 in 6.2 mi SW 12.7 mph - N/A   Partly Cloudy
10:00 PM 78.8 °F - 68.0 °F 69% 29.80 in 6.2 mi SW 13.8 mph - N/A   Partly Cloudy
10:30 PM 78.8 °F - 69.8 °F 74% 29.77 in 6.2 mi SSW 12.7 mph - N/A   Scattered Clouds
11:00 PM 78.8 °F - 66.2 °F 65% 29.77 in 6.2 mi WSW 17.3 mph - N/A   Scattered Clouds
11:30 PM 77.0 °F - 68.0 °F 74% 29.77 in 6.2 mi SW 15.0 mph - N/A   Partly Cloudy